COSMOS 2251 DEB, 37336

Orbit data source: Space-Track

COSMOS 2251 DEB, 37336 is space debris in LEO originally from a launch on Wed, 16 Jun 1993 UTC launched from the Plesetsk Missile And Space Complex (PKMTR). The debris from Iridium 33, an American commercial communications satellite, has been tracked extensively since its accidental collision with the defunct Russian satellite Cosmos 2251 in 2009. This event, occurring at high speed in low Earth orbit (LEO), generated thousands of pieces of space debris, significantly increasing the risk of further collisions. The Iridium 33 debris cloud has impacted space traffic management and orbital debris mitigation strategies, making it a subject of ongoing study in space situational awareness.

Loading next visibility...
Identifier
37336, 1993-036BLC
Orbit
LEO
Country
Flag of CISCIS
Related business
Manufacturer
Unknown
Mission
Spacecraft
Bus & Motor
Unknown
Mass
Unknown
Launch date (UTC)
1993-06-16 (33 years ago)
Launch vehicle
Unknown
Launch site
Plesetsk Missile And Space Complex (PKMTR)
Object type
Payload
Rocket body
Debris
Shape & HBR
Unknown shape, 0.1 m
Radar Cross Section
Small (<0.1 m²)

Expand to show TLE details & history
Last TLE update: 5 days ago

TLE from 5 days ago
0 COSMOS 2251 DEB
1 37336U 93036BLC 26116.18324435  .00000151  00000-0  64352-4 0  9990
2 37336  74.0398  85.7620 0029049 134.2323 226.1221 14.32817733670452
Epoch: 2026-04-26T04:23Z
TLE epoch observation values (Epoch: 2026-04-26T04:23:52.311Z)
Latitude
-0.00001°
Longitude
165.60311°
Altitude
799.386 km
Speed
7.446 km/s
True Right ascension
05h 43m 02s
True Declination
0° 00' 00"
Sunlit
Object was in daylight at epoch
Visualization orbit readout
Latitude
Unknown
Longitude
Unknown
Altitude
Unknown
Speed
Unknown
Apparent Right ascension
Unknown
Apparent Declination
Unknown
Sunlit
N/A
Visualization observer readout
Local Sidereal Time
19:49:12
Azimuth
Unknown
Elevation
Unknown
Doppler factor
Unknown
Orbital elements
Apogee altitude
800.748 km
Perigee altitude
759.161 km
Semi-major axis
7,158.092 km
Eccentricity
0.0029
Inclination
74.0398°
RAAN
85.762°
Arg. of periapsis
134.2323°
True anomaly
225.88276°
Mean anomaly
226.1221°
Eccentric anomaly
226.00237°
Mean motion
3.58383 °/min
Orbital period
100.45 mins
BSTAR
0.000064352
Loading maneuver chart data...
Computing Atmospheric mass density...

Documentation

Showing up to 5 results
|